Regional Weather Roundup
Issued by NWS

Home | Current Version | Previous Version | Graphics & Text | Print | Product List | Glossary On
Versions: 1 2 3 4 5 6 7 8 9 10 11 12 13 14 15 16 17 18 19 20 21 22 23 24 25 26 27 28 29 30 31 32 33 34 35 36 37 38 39 40 41 42 43 44 45 46 47 48 49 50
005
ASUS43 KFSD 280502
RWRSD

WEATHER ROUNDUP FOR SOUTH DAKOTA
NATIONAL WEATHER SERVICE SIOUX FALLS SD
1200 AM CDT SAT MAY 28 2016

NOTE: "FAIR" INDICATES FEW OR NO CLOUDS BELOW 12,000 FEET WITH NO
SIGNIFICANT WEATHER AND/OR OBSTRUCTIONS TO VISIBILITY.


SDZ001>005-009-010-012>017-280600-
NORTHWEST AND NORTH CENTRAL SOUTH DAKOTA

CITY           SKY/WX    TMP DP  RH WIND       PRES   REMARKS
BUFFALO          N/A     55  45  68 CALM      29.79S
FAITH            N/A     56  47  71 S6        29.85S
MOBRIDGE       CLOUDY    56  51  84 N5        29.79S
$$

SDZ012>016-024>037-041>051-057-063-072>074-280600-
SOUTHWEST AND SOUTH CENTRAL SOUTH DAKOTA

CITY           SKY/WX    TMP DP  RH WIND       PRES   REMARKS
RAPID CTY ARPT CLOUDY    48  45  89 CALM      29.86S
PIERRE         CLOUDY    59  52  77 NW9       29.79F
CUSTER         CLOUDY    43  41  93 CALM      29.94R
ELLSWORTH AFB  CLOUDY    54  47  77 NW1       29.86R
PHILIP         MOCLDY    51  50  96 W6        29.84S
PINE RIDGE     CLEAR     47  43  86 NW3       29.88S
WINNER         FAIR      58  54  86 N5        29.81F
$$

SDZ004>011-016>023-039-040-280600-
NORTHEAST SOUTH DAKOTA

CITY           SKY/WX    TMP DP  RH WIND       PRES   REMARKS
ABERDEEN       CLOUDY    60  57  89 SE3       29.79R
WATERTOWN      CLOUDY    58  55  90 CALM      29.79R
BROOKINGS      PTCLDY    61  57  87 NE5       29.77S
SISSETON         N/A     59  57  93 N3        29.78S
$$

SDZ017-020-022-023-036>040-048>070-280600-
SOUTHEAST SOUTH DAKOTA

CITY           SKY/WX    TMP DP  RH WIND       PRES   REMARKS
SIOUX FALLS    CLOUDY    61  57  87 NE6       29.74F
HURON          CLOUDY    59  57  93 N5        29.77F
MITCHELL       CLOUDY    62  60  93 NW9       29.76F
YANKTON        CLOUDY    66  59  77 N9        29.71F
$$

ABBREVIATIONS USED IN REMARKS
   TC - TEMPERATURE IN CELSIUS
  WCI - WIND CHILL INDEX
   HX - HEAT INDEX
  VSB - VISIBILITY





USA.gov is the U.S. government's official web portal to all federal, state and local government web resources and services.